User: anonymous   Login
Location: Arthez
(43.0833°N, 0.2500°W)
Time: 01:23:45
(UTC+00:00)
Language:

Cosmos 304 Rocket - Orbit

View from above orbital plane
View from above orbital plane
View from above satellite
View from above satellite

Ground track
Ground track

The orbit data is extracted from the following two-line orbital elements,

1 04139U 69091B   22276.49203638  .00000691  00000-0  13973-3 0  9998
2 04139  74.0346 355.4530 0006751 306.4227  53.6317 14.63318248811635
Epoch (UTC): 03 October 2022 11:48:31
Eccentricity: 0.0006751
inclination: 74.0346°
perigee height: 678 km
apogee height: 687 km
right ascension of ascending node: 355.4530°
argument of perigee: 306.4227°
revolutions per day: 14.63318248
mean anomaly at epoch: 53.6317°
orbit number at epoch: 81163

The dashed part of the orbit path shows where the satellite is in the earth's shadow,  

DLR